Location: Antioch Baptist Church
(32.6696°N, 85.7327°W)
Time: 09:06:33
(UTC+00:00)

Cosmos-2242 - Pass Details

Date: 05 November 2020
Orbit: 592 x 616 km, 82.5° (Epoch: 03 December)

Event Time Altitude Azimuth Distance (km) Brightness Sun altitude
Rises 23:22:57 0° 168° (SSE) 2,817 6.5 -7.8°
Reaches altitude 10° 23:25:15 10° 160° (SSE) 1,923 5.5 -8.3°
Maximum altitude 23:29:11 38° 92° (E) 917 3.5 -9.1°
Drops below altitude 10° 23:33:10 10° 24° (NNE) 1,948 5.3 -9.9°
Sets 23:35:30 0° 16° (NNE) 2,859 6.2 -10.4°
